Data No,UTC Date,UTC Time,Latitude,Longitude,Course(deg),Temp(degC),Sal(psu),Fluor Int,Blank
1756,2005/1/11,7:34:02, 20-00.169N,119-59.922E,231,24.153,34.3121,214,161
1757,2005/1/11,7:35:02, 20-00.019N,119-59.748E,233.1,24.158,34.3085,212,161
1758,2005/1/11,7:36:02, 19-59.876N,119-59.570E,230.9,24.159,34.3066,212,161
1759,2005/1/11,7:37:02, 19-59.723N,119-59.397E,229.5,24.158,34.3062,214,161
1760,2005/1/11,7:38:02, 19-59.579N,119-59.220E,227.2,24.167,34.3085,211,161
1761,2005/1/11,7:39:02, 19-59.426N,119-59.052E,221.1,24.179,34.31,221,161
1762,2005/1/11,7:40:02, 19-59.283N,119-58.873E,223.1,24.191,34.3088,211,161
1763,2005/1/11,7:41:02, 19-59.133N,119-58.697E,224,24.202,34.3059,207,161
1764,2005/1/11,7:42:02, 19-58.986N,119-58.520E,224.4,24.213,34.3016,212,161
1765,2005/1/11,7:43:02, 19-58.840N,119-58.340E,231.7,24.22,34.298,211,161
1766,2005/1/11,7:44:02, 19-58.693N,119-58.161E,228.3,24.223,34.2967,203,161
1767,2005/1/11,7:45:02, 19-58.546N,119-57.982E,226.8,24.216,34.2946,211,161
1768,2005/1/11,7:46:02, 19-58.399N,119-57.800E,225.8,24.203,34.2964,211,161
1769,2005/1/11,7:47:02, 19-58.243N,119-57.633E,223.1,24.197,34.2995,221,161
1770,2005/1/11,7:48:02, 19-58.086N,119-57.476E,220.6,24.19,34.3034,215,161
1771,2005/1/11,7:49:02, 19-57.922N,119-57.321E,221.9,24.189,34.305,212,161
1772,2005/1/11,7:50:02, 19-57.768N,119-57.159E,223.9,24.2,34.3065,215,161
1773,2005/1/11,7:51:02, 19-57.608N,119-57.005E,234.3,24.206,34.3054,220,161
1774,2005/1/11,7:52:02, 19-57.452N,119-56.849E,218.7,24.213,34.3015,221,161
1775,2005/1/11,7:53:02, 19-57.294N,119-56.691E,225.7,24.227,34.2983,222,161
1776,2005/1/11,7:54:02, 19-57.136N,119-56.532E,231.5,24.239,34.2947,220,161
1777,2005/1/11,7:55:02, 19-56.972N,119-56.376E,219.8,24.251,34.29,219,161
1778,2005/1/11,7:56:02, 19-56.814N,119-56.216E,217,24.257,34.2868,221,161
1779,2005/1/11,7:57:02, 19-56.650N,119-56.062E,227.8,24.263,34.2835,220,161
1780,2005/1/11,7:58:02, 19-56.496N,119-55.899E,219.6,24.268,34.2824,220,161
1781,2005/1/11,7:59:02, 19-56.332N,119-55.745E,224.8,24.28,34.2804,218,161
1782,2005/1/11,8:00:02, 19-56.174N,119-55.587E,225,24.296,34.2781,219,161
1783,2005/1/11,8:01:02, 19-56.016N,119-55.433E,228.7,24.305,34.2737,218,161
1784,2005/1/11,8:02:02, 19-55.861N,119-55.279E,228.3,24.321,34.2692,220,161
1785,2005/1/11,8:03:02, 19-55.709N,119-55.126E,220.4,24.344,34.267,218,161
1786,2005/1/11,8:04:02, 19-55.554N,119-54.977E,222.8,24.37,34.262,217,161
1787,2005/1/11,8:05:02, 19-55.403N,119-54.825E,216.3,24.397,34.256,212,161
1788,2005/1/11,8:06:02, 19-55.250N,119-54.674E,227.5,24.417,34.2479,213,161
1789,2005/1/11,8:07:02, 19-55.098N,119-54.528E,219.3,24.438,34.2418,218,161
1790,2005/1/11,8:08:02, 19-54.948N,119-54.378E,220.6,24.456,34.2375,216,161
1791,2005/1/11,8:09:02, 19-54.792N,119-54.231E,225,24.475,34.2335,222,161
1792,2005/1/11,8:10:02, 19-54.642N,119-54.078E,220,24.496,34.2301,212,161
1793,2005/1/11,8:11:02, 19-54.486N,119-53.930E,225.3,24.507,34.2271,214,161
1794,2005/1/11,8:12:02, 19-54.339N,119-53.780E,225.7,24.51,34.2242,212,161
1795,2005/1/11,8:13:02, 19-54.186N,119-53.630E,222.2,24.51,34.2233,211,161
1796,2005/1/11,8:14:02, 19-54.033N,119-53.477E,224.7,24.512,34.223,213,161
1797,2005/1/11,8:15:02, 19-53.879N,119-53.324E,221.7,24.504,34.2227,211,161
1798,2005/1/11,8:16:02, 19-53.726N,119-53.170E,230.4,24.494,34.2222,210,161
1799,2005/1/11,8:17:02, 19-53.573N,119-53.015E,224.9,24.482,34.2248,213,161
1800,2005/1/11,8:18:02, 19-53.417N,119-52.861E,219.3,24.478,34.2267,215,161
1801,2005/1/11,8:19:02, 19-53.259N,119-52.709E,221.1,24.478,34.2287,214,161
1802,2005/1/11,8:20:02, 19-53.104N,119-52.551E,220.4,24.485,34.2278,212,161
1803,2005/1/11,8:21:02, 19-52.946N,119-52.393E,232.3,24.488,34.2276,212,161
1804,2005/1/11,8:22:02, 19-52.791N,119-52.238E,221.4,24.497,34.2255,212,161
1805,2005/1/11,8:23:02, 19-52.632N,119-52.082E,215.2,24.501,34.2244,211,161
1806,2005/1/11,8:24:02, 19-52.473N,119-51.929E,228.6,24.504,34.2224,211,161
1807,2005/1/11,8:25:02, 19-52.318N,119-51.771E,219.5,24.511,34.2227,209,161
1808,2005/1/11,8:26:02, 19-52.161N,119-51.613E,227,24.511,34.2217,209,161
1809,2005/1/11,8:27:02, 19-52.007N,119-51.453E,223.6,24.512,34.2211,207,161
1810,2005/1/11,8:28:02, 19-51.852N,119-51.296E,223.9,24.492,34.2205,206,161
1811,2005/1/11,8:29:02, 19-51.704N,119-51.128E,225.1,24.466,34.2218,201,161
1812,2005/1/11,8:30:02, 19-51.549N,119-50.965E,230.5,24.489,34.2334,210,161
1813,2005/1/11,8:31:02, 19-51.388N,119-50.806E,221.8,24.485,34.2305,207,161
1814,2005/1/11,8:32:02, 19-51.234N,119-50.638E,218.2,24.483,34.2269,206,161
1815,2005/1/11,8:33:02, 19-51.076N,119-50.476E,223.4,24.448,34.2277,207,161
1816,2005/1/11,8:34:02, 19-50.921N,119-50.310E,224,24.431,34.2323,205,161
1817,2005/1/11,8:35:02, 19-50.763N,119-50.146E,225.1,24.443,34.2405,206,161
1818,2005/1/11,8:36:02, 19-50.602N,119-49.986E,230.1,24.439,34.2393,205,161
1819,2005/1/11,8:37:02, 19-50.441N,119-49.825E,226.7,24.294,34.238,205,161
1820,2005/1/11,8:38:02, 19-50.287N,119-49.658E,226.5,24.195,34.2525,205,161
1821,2005/1/11,8:39:02, 19-50.135N,119-49.492E,227.3,24.186,34.29,206,161
1822,2005/1/11,8:40:02, 19-49.979N,119-49.330E,224.5,24.222,34.2978,207,161
1823,2005/1/11,8:41:02, 19-49.822N,119-49.167E,224.3,24.291,34.2928,206,161
1824,2005/1/11,8:42:02, 19-49.668N,119-49.001E,226,24.393,34.2812,205,161
1825,2005/1/11,8:43:02, 19-49.511N,119-48.837E,220.6,24.385,34.2565,205,161
1826,2005/1/11,8:44:02, 19-49.353N,119-48.673E,226.4,24.347,34.2435,203,161
1827,2005/1/11,8:45:02, 19-49.202N,119-48.511E,224.7,24.217,34.2475,206,161
1828,2005/1/11,8:46:02, 19-49.048N,119-48.348E,217.5,24.296,34.2712,206,161
1829,2005/1/11,8:47:02, 19-48.886N,119-48.189E,222.2,24.305,34.2728,204,161
1830,2005/1/11,8:48:02, 19-48.726N,119-48.027E,222.9,24.184,34.2624,200,161
1831,2005/1/11,8:49:02, 19-48.568N,119-47.864E,223.5,24.034,34.2598,200,161
1832,2005/1/11,8:50:02, 19-48.409N,119-47.705E,216.7,24.023,34.2853,204,161
1833,2005/1/11,8:51:02, 19-48.249N,119-47.544E,227.1,24.024,34.2882,208,161
1834,2005/1/11,8:52:02, 19-48.087N,119-47.385E,224.7,24.024,34.2853,209,161
1835,2005/1/11,8:53:02, 19-47.926N,119-47.225E,221,24.019,34.2823,210,161
1836,2005/1/11,8:54:02, 19-47.763N,119-47.067E,223.1,24.029,34.2802,210,161
1837,2005/1/11,8:55:02, 19-47.601N,119-46.909E,225.9,24.05,34.2787,210,161
1838,2005/1/11,8:56:02, 19-47.439N,119-46.749E,226.4,24.061,34.2756,214,161
1839,2005/1/11,8:57:02, 19-47.281N,119-46.593E,220.9,24.068,34.2725,213,161
1840,2005/1/11,8:58:02, 19-47.120N,119-46.439E,228.3,24.066,34.2709,213,161
1841,2005/1/11,8:59:02, 19-46.960N,119-46.280E,226.6,24.073,34.2717,214,161
1842,2005/1/11,9:00:02, 19-46.799N,119-46.121E,221.4,24.083,34.2712,208,161
1843,2005/1/11,9:01:02, 19-46.636N,119-45.963E,225.7,24.09,34.2707,211,161
1844,2005/1/11,9:02:02, 19-46.482N,119-45.795E,231.2,24.105,34.2695,212,161
1845,2005/1/11,9:03:02, 19-46.329N,119-45.625E,226.8,24.115,34.268,213,161
1846,2005/1/11,9:04:02, 19-46.174N,119-45.458E,228.2,24.116,34.2636,214,161
1847,2005/1/11,9:05:02, 19-46.016N,119-45.290E,231.2,24.115,34.2617,221,161
1848,2005/1/11,9:06:02, 19-45.857N,119-45.123E,222.2,24.115,34.2621,219,161
1849,2005/1/11,9:07:02, 19-45.703N,119-44.956E,226.4,24.121,34.2626,221,161
1850,2005/1/11,9:08:02, 19-45.549N,119-44.790E,222.5,24.128,34.2624,221,161
1851,2005/1/11,9:09:02, 19-45.391N,119-44.627E,222.3,24.129,34.2618,231,161
1852,2005/1/11,9:10:02, 19-45.237N,119-44.459E,230.9,24.132,34.2612,230,161
1853,2005/1/11,9:11:02, 19-45.078N,119-44.296E,223.6,24.144,34.2619,229,161
1854,2005/1/11,9:12:02, 19-44.928N,119-44.126E,222.9,24.149,34.2619,235,161
1855,2005/1/11,9:13:02, 19-44.771N,119-43.963E,221.1,24.15,34.2609,236,161
1856,2005/1/11,9:14:02, 19-44.618N,119-43.797E,224.8,24.151,34.2617,233,161
1857,2005/1/11,9:15:02, 19-44.464N,119-43.632E,223.1,24.149,34.2638,234,161
1858,2005/1/11,9:16:02, 19-44.313N,119-43.467E,224.3,24.143,34.2648,238,161
1859,2005/1/11,9:17:02, 19-44.161N,119-43.307E,231.8,24.135,34.267,233,161
1860,2005/1/11,9:18:02, 19-44.012N,119-43.142E,217.6,24.129,34.2698,233,161
1861,2005/1/11,9:19:02, 19-43.858N,119-42.979E,225.3,24.12,34.2733,236,161
1862,2005/1/11,9:20:02, 19-43.706N,119-42.810E,230.3,24.111,34.2753,239,161
1863,2005/1/11,9:21:02, 19-43.550N,119-42.644E,231.7,24.107,34.2782,238,161
1864,2005/1/11,9:22:02, 19-43.395N,119-42.475E,234.6,24.104,34.2807,247,161
1865,2005/1/11,9:23:02, 19-43.239N,119-42.305E,218.2,24.107,34.2814,240,161
1866,2005/1/11,9:24:02, 19-43.086N,119-42.136E,224.8,24.102,34.2827,239,161
1867,2005/1/11,9:25:02, 19-42.931N,119-41.967E,225.9,24.091,34.282,245,161
1868,2005/1/11,9:26:02, 19-42.781N,119-41.797E,223.2,24.074,34.2833,245,161
1869,2005/1/11,9:27:02, 19-42.624N,119-41.631E,228.3,24.059,34.2868,243,161
1870,2005/1/11,9:28:02, 19-42.468N,119-41.461E,225.4,24.045,34.2906,246,161
1871,2005/1/11,9:29:02, 19-42.311N,119-41.294E,220.2,24.019,34.2957,249,161
1872,2005/1/11,9:30:02, 19-42.158N,119-41.126E,229.4,23.996,34.3016,253,161
1873,2005/1/11,9:31:02, 19-42.002N,119-40.965E,227.9,23.981,34.3127,245,161
1874,2005/1/11,9:32:02, 19-41.850N,119-40.802E,218.2,23.952,34.3201,242,161
1875,2005/1/11,9:33:02, 19-41.693N,119-40.639E,223.7,23.929,34.3304,247,161
1876,2005/1/11,9:34:02, 19-41.535N,119-40.478E,215.4,23.902,34.345,244,161
1877,2005/1/11,9:35:02, 19-41.379N,119-40.314E,228.5,23.875,34.3605,239,161
1878,2005/1/11,9:36:02, 19-41.231N,119-40.144E,225.2,23.846,34.3785,243,161
1879,2005/1/11,9:37:02, 19-41.076N,119-39.976E,227.4,23.825,34.399,232,161
1880,2005/1/11,9:38:02, 19-40.927N,119-39.807E,227.8,23.816,34.416,230,161
1881,2005/1/11,9:39:02, 19-40.773N,119-39.637E,222.6,23.808,34.4245,229,161
1882,2005/1/11,9:40:02, 19-40.621N,119-39.467E,225,23.802,34.4284,228,161
1883,2005/1/11,9:41:02, 19-40.468N,119-39.299E,232.5,23.801,34.4373,227,161
1884,2005/1/11,9:42:02, 19-40.316N,119-39.131E,225.1,23.809,34.4434,230,161
1885,2005/1/11,9:43:02, 19-40.168N,119-38.966E,219.7,23.822,34.4447,228,161
1886,2005/1/11,9:44:03, 19-40.018N,119-38.804E,221,23.831,34.439,230,161
1887,2005/1/11,9:45:02, 19-39.870N,119-38.639E,223.8,23.839,34.4305,228,161
1888,2005/1/11,9:46:02, 19-39.725N,119-38.473E,226.9,23.844,34.4232,232,161
1889,2005/1/11,9:47:02, 19-39.577N,119-38.305E,224.4,23.849,34.4169,233,161
1890,2005/1/11,9:48:03, 19-39.428N,119-38.137E,228.2,23.85,34.4145,229,161
1891,2005/1/11,9:49:02, 19-39.277N,119-37.968E,230.7,23.857,34.4143,232,161
1892,2005/1/11,9:50:02, 19-39.127N,119-37.798E,231.3,23.864,34.4143,231,161
1893,2005/1/11,9:51:02, 19-38.972N,119-37.627E,230.4,23.864,34.4109,234,161
1894,2005/1/11,9:52:02, 19-38.822N,119-37.452E,225.5,23.861,34.4081,232,161
1895,2005/1/11,9:53:02, 19-38.666N,119-37.281E,232.9,23.856,34.4102,231,161
1896,2005/1/11,9:54:03, 19-38.516N,119-37.108E,230.2,23.852,34.4176,234,161
1897,2005/1/11,9:55:02, 19-38.364N,119-36.935E,230.6,23.84,34.4259,230,161
1898,2005/1/11,9:56:02, 19-38.208N,119-36.766E,229.8,23.822,34.4322,228,161
1899,2005/1/11,9:57:02, 19-38.059N,119-36.589E,229,23.831,34.4547,228,161
1900,2005/1/11,9:58:02, 19-37.906N,119-36.418E,224.7,23.84,34.4618,228,161
1901,2005/1/11,9:59:02, 19-37.756N,119-36.244E,231.4,23.84,34.4468,230,161
1903,2005/1/11,10:01:02, 19-37.457N,119-35.890E,226.1,23.834,34.4469,229,161
1904,2005/1/11,10:02:03, 19-37.304N,119-35.709E,228,23.829,34.45,230,161
1905,2005/1/11,10:03:02, 19-37.154N,119-35.530E,225.4,23.824,34.4516,229,161
1906,2005/1/11,10:04:02, 19-36.995N,119-35.356E,218.6,23.824,34.4594,232,161
1907,2005/1/11,10:05:02, 19-36.839N,119-35.183E,221,23.831,34.4642,228,161
1908,2005/1/11,10:06:02, 19-36.681N,119-35.015E,226.4,23.836,34.4575,230,161
1909,2005/1/11,10:07:02, 19-36.528N,119-34.841E,225.1,23.84,34.4491,228,161
1910,2005/1/11,10:08:02, 19-36.371N,119-34.675E,218.8,23.841,34.4427,232,161
1911,2005/1/11,10:09:02, 19-36.217N,119-34.504E,227.1,23.842,34.4428,234,161
1912,2005/1/11,10:10:02, 19-36.059N,119-34.330E,219.5,23.84,34.4465,234,161
1913,2005/1/11,10:11:02, 19-35.895N,119-34.161E,223.5,23.841,34.449,235,161
1914,2005/1/11,10:12:02, 19-35.736N,119-33.993E,227.2,23.836,34.4604,233,161
1915,2005/1/11,10:13:02, 19-35.580N,119-33.821E,227,23.839,34.475,236,161
1916,2005/1/11,10:14:02, 19-35.419N,119-33.652E,230.3,23.84,34.4808,237,161
1917,2005/1/11,10:15:02, 19-35.256N,119-33.481E,229.2,23.837,34.4774,238,161
1918,2005/1/11,10:16:02, 19-35.095N,119-33.309E,229.5,23.827,34.4797,237,161
1919,2005/1/11,10:17:02, 19-34.934N,119-33.140E,233.4,23.816,34.4897,235,161
1920,2005/1/11,10:18:02, 19-34.773N,119-32.972E,223,23.804,34.5066,232,161
1921,2005/1/11,10:19:02, 19-34.607N,119-32.812E,218.7,23.772,34.5261,231,161
1922,2005/1/11,10:20:02, 19-34.444N,119-32.648E,220,23.672,34.5466,225,161
1923,2005/1/11,10:21:02, 19-34.280N,119-32.486E,224.4,23.6,34.6018,222,161
1924,2005/1/11,10:22:02, 19-34.112N,119-32.326E,221.1,23.548,34.6549,217,161
1925,2005/1/11,10:23:02, 19-33.947N,119-32.162E,216.4,23.533,34.655,213,161
1926,2005/1/11,10:24:03, 19-33.778N,119-32.005E,222.7,23.528,34.6484,211,161
1927,2005/1/11,10:25:02, 19-33.613N,119-31.841E,226.9,23.528,34.6453,209,161
1928,2005/1/11,10:26:03, 19-33.447N,119-31.680E,225.4,23.534,34.6444,208,161
1929,2005/1/11,10:27:02, 19-33.280N,119-31.518E,222.4,23.536,34.6442,204,161
1930,2005/1/11,10:28:03, 19-33.115N,119-31.351E,218.4,23.539,34.6452,203,161
1931,2005/1/11,10:29:02, 19-32.946N,119-31.188E,216.8,23.545,34.6459,203,161
1932,2005/1/11,10:30:03, 19-32.779N,119-31.022E,221.1,23.549,34.6474,201,161
1934,2005/1/11,10:32:03, 19-32.445N,119-30.688E,218.2,23.557,34.6504,203,161
1935,2005/1/11,10:33:02, 19-32.271N,119-30.521E,221.5,23.563,34.6523,205,161
1936,2005/1/11,10:34:02, 19-32.100N,119-30.355E,226.1,23.57,34.6538,204,161
1937,2005/1/11,10:35:02, 19-31.933N,119-30.187E,224.6,23.576,34.6572,209,161
1938,2005/1/11,10:36:02, 19-31.765N,119-30.021E,216.8,23.599,34.6598,208,161
1939,2005/1/11,10:37:02, 19-31.596N,119-29.853E,221.7,23.651,34.6622,209,161
1940,2005/1/11,10:38:02, 19-31.428N,119-29.688E,227.3,23.681,34.6656,205,161
1941,2005/1/11,10:39:03, 19-31.261N,119-29.519E,221.4,23.697,34.67,205,161
1942,2005/1/11,10:40:02, 19-31.096N,119-29.351E,226.3,23.719,34.6727,210,161
1943,2005/1/11,10:41:03, 19-30.930N,119-29.189E,222.3,23.749,34.6703,213,161
1944,2005/1/11,10:42:02, 19-30.767N,119-29.023E,222.4,23.758,34.6328,213,161
1945,2005/1/11,10:43:02, 19-30.601N,119-28.861E,221,23.763,34.6067,216,161
1947,2005/1/11,10:45:02, 19-30.270N,119-28.530E,223.8,23.773,34.5827,224,161
1948,2005/1/11,10:46:03, 19-30.099N,119-28.368E,221.1,23.778,34.5742,230,161
1949,2005/1/11,10:47:03, 19-29.930N,119-28.201E,226.4,23.785,34.5679,230,161
1950,2005/1/11,10:48:02, 19-29.765N,119-28.033E,225.9,23.789,34.5639,229,161
1963,2005/1/11,11:01:02, 19-27.555N,119-25.825E,221.4,23.822,34.5576,224,161
1964,2005/1/11,11:02:02, 19-27.393N,119-25.669E,222,23.824,34.5581,226,161
1965,2005/1/11,11:03:02, 19-27.225N,119-25.506E,224.5,23.824,34.5596,228,161
1966,2005/1/11,11:04:03, 19-27.058N,119-25.339E,228.5,23.824,34.5614,227,161
1967,2005/1/11,11:05:02, 19-26.892N,119-25.176E,221.8,23.826,34.5627,227,161
1968,2005/1/11,11:06:03, 19-26.723N,119-25.011E,227.5,23.826,34.5641,222,161
1969,2005/1/11,11:07:03, 19-26.562N,119-24.843E,223.5,23.825,34.5664,226,161
1970,2005/1/11,11:08:03, 19-26.394N,119-24.680E,225.2,23.811,34.5687,227,161
1971,2005/1/11,11:09:02, 19-26.232N,119-24.513E,223,23.799,34.5552,227,161
1972,2005/1/11,11:10:02, 19-26.067N,119-24.348E,227.8,23.796,34.4676,227,161
1973,2005/1/11,11:11:02, 19-25.904N,119-24.177E,223.5,23.803,34.4144,225,161
1974,2005/1/11,11:12:02, 19-25.734N,119-24.009E,225.2,23.817,34.3879,228,161
1975,2005/1/11,11:13:03, 19-25.563N,119-23.836E,226.2,23.828,34.375,232,161
1976,2005/1/11,11:14:02, 19-25.393N,119-23.663E,226.7,23.834,34.3679,234,161
1977,2005/1/11,11:15:02, 19-25.221N,119-23.491E,223.5,23.834,34.3667,234,161
1978,2005/1/11,11:16:03, 19-25.054N,119-23.312E,226.8,23.836,34.3683,231,161
1979,2005/1/11,11:17:03, 19-24.882N,119-23.136E,226.9,23.836,34.3713,233,161
1980,2005/1/11,11:18:02, 19-24.713N,119-22.961E,223.3,23.836,34.3742,233,161
1981,2005/1/11,11:19:03, 19-24.543N,119-22.786E,224.9,23.84,34.3764,234,161
1982,2005/1/11,11:20:03, 19-24.376N,119-22.610E,226.7,23.845,34.381,236,161
1983,2005/1/11,11:21:02, 19-24.212N,119-22.435E,222.4,23.844,34.3816,231,161
1984,2005/1/11,11:22:02, 19-24.046N,119-22.263E,223.4,23.841,34.3815,231,161
1985,2005/1/11,11:23:03, 19-23.880N,119-22.092E,228.9,23.836,34.3829,234,161
1986,2005/1/11,11:24:02, 19-23.719N,119-21.918E,226.7,23.831,34.3865,232,161
1987,2005/1/11,11:25:03, 19-23.551N,119-21.749E,226,23.861,34.3898,233,161
1988,2005/1/11,11:26:02, 19-23.386N,119-21.577E,229.4,23.883,34.3814,228,161
1989,2005/1/11,11:27:02, 19-23.221N,119-21.403E,225.1,23.888,34.3594,229,161
1990,2005/1/11,11:28:03, 19-23.056N,119-21.232E,222.9,23.88,34.3467,230,161
1991,2005/1/11,11:29:02, 19-22.885N,119-21.066E,226.2,23.87,34.3441,229,161
1992,2005/1/11,11:30:03, 19-22.722N,119-20.895E,220.2,23.871,34.3476,231,161
1993,2005/1/11,11:31:02, 19-22.561N,119-20.731E,222,23.881,34.3494,231,161
1994,2005/1/11,11:32:03, 19-22.397N,119-20.570E,223.2,23.888,34.347,230,161
1995,2005/1/11,11:33:02, 19-22.235N,119-20.403E,224.1,23.893,34.3465,228,161
1996,2005/1/11,11:34:03, 19-22.069N,119-20.240E,223.9,23.893,34.3474,230,161
1997,2005/1/11,11:35:03, 19-21.902N,119-20.076E,222.8,23.889,34.3514,226,161
1998,2005/1/11,11:36:03, 19-21.747N,119-19.914E,223.4,23.884,34.3563,228,161
1999,2005/1/11,11:37:02, 19-21.592N,119-19.757E,216,23.884,34.3618,227,161
2000,2005/1/11,11:38:03, 19-21.432N,119-19.602E,227.8,23.88,34.3657,229,161
2001,2005/1/11,11:39:02, 19-21.279N,119-19.441E,227.3,23.879,34.3678,225,161
2002,2005/1/11,11:40:03, 19-21.121N,119-19.286E,229.6,23.877,34.3693,227,161
2003,2005/1/11,11:41:02, 19-20.963N,119-19.128E,228.5,23.875,34.3694,227,161
2004,2005/1/11,11:42:03, 19-20.812N,119-18.964E,219.7,23.872,34.3689,230,161
2005,2005/1/11,11:43:02, 19-20.664N,119-18.800E,221.7,23.875,34.3674,224,161
2006,2005/1/11,11:44:02, 19-20.512N,119-18.641E,229.8,23.894,34.364,223,161
2007,2005/1/11,11:45:03, 19-20.361N,119-18.480E,227.9,23.917,34.3581,229,161
2008,2005/1/11,11:46:02, 19-20.213N,119-18.314E,227.1,23.937,34.3504,231,161
2009,2005/1/11,11:47:03, 19-20.063N,119-18.152E,227.9,23.955,34.3458,241,161
2010,2005/1/11,11:48:02, 19-19.912N,119-17.989E,227.9,23.982,34.3421,231,161
2011,2005/1/11,11:49:03, 19-19.765N,119-17.823E,228.9,24.002,34.3394,231,161
2012,2005/1/11,11:50:03, 19-19.610N,119-17.656E,221.7,24.012,34.3351,231,161
2013,2005/1/11,11:51:02, 19-19.460N,119-17.494E,224.9,24.046,34.3317,234,161
2014,2005/1/11,11:52:03, 19-19.312N,119-17.330E,224.8,24.081,34.327,230,161
2015,2005/1/11,11:53:02, 19-19.163N,119-17.168E,231.1,24.104,34.3171,241,161
2016,2005/1/11,11:54:03, 19-19.015N,119-17.003E,223.4,24.119,34.3102,239,161
2017,2005/1/11,11:55:02, 19-18.860N,119-16.840E,225.6,24.127,34.3072,239,161
2018,2005/1/11,11:56:03, 19-18.712N,119-16.670E,225.9,24.131,34.3055,241,161
2019,2005/1/11,11:57:02, 19-18.558N,119-16.503E,225,24.132,34.3052,243,161
2020,2005/1/11,11:58:03, 19-18.407N,119-16.332E,231.1,24.13,34.3054,239,161
2021,2005/1/11,11:59:02, 19-18.254N,119-16.165E,228.9,24.128,34.3064,237,161
2022,2005/1/11,12:00:03, 19-18.102N,119-15.994E,230.5,24.123,34.307,246,161
2023,2005/1/11,12:01:03, 19-17.944N,119-15.825E,223,24.125,34.3074,236,161
2024,2005/1/11,12:02:03, 19-17.795N,119-15.654E,226,24.128,34.3083,238,161
2025,2005/1/11,12:03:03, 19-17.634N,119-15.481E,225.8,24.132,34.308,236,161
2026,2005/1/11,12:04:03, 19-17.484N,119-15.313E,225.1,24.137,34.3076,237,161
2027,2005/1/11,12:05:02, 19-17.327N,119-15.141E,225.9,24.136,34.3067,236,161
2028,2005/1/11,12:06:02, 19-17.173N,119-14.963E,225.1,24.136,34.3074,237,161
2029,2005/1/11,12:07:03, 19-17.016N,119-14.786E,231.6,24.135,34.3077,237,161
2030,2005/1/11,12:08:03, 19-16.858N,119-14.606E,224.5,24.127,34.3084,234,161
2031,2005/1/11,12:09:03, 19-16.702N,119-14.432E,222.4,24.118,34.3092,236,161
2032,2005/1/11,12:10:03, 19-16.545N,119-14.254E,223.7,24.104,34.3104,236,161
2033,2005/1/11,12:11:02, 19-16.387N,119-14.075E,223.7,24.085,34.3117,236,161
2034,2005/1/11,12:12:03, 19-16.231N,119-13.894E,224,24.069,34.3142,236,161
2035,2005/1/11,12:13:03, 19-16.075N,119-13.712E,227.4,24.057,34.316,232,161
2036,2005/1/11,12:14:03, 19-15.918N,119-13.526E,230.1,24.05,34.3177,237,161
2037,2005/1/11,12:15:03, 19-15.760N,119-13.351E,229.4,24.037,34.3176,231,161
2038,2005/1/11,12:16:03, 19-15.603N,119-13.163E,226.1,24.033,34.3166,238,161
2039,2005/1/11,12:17:03, 19-15.446N,119-12.983E,230.1,24.026,34.316,237,161
2040,2005/1/11,12:18:03, 19-15.290N,119-12.801E,227.1,24.011,34.3154,240,161
2041,2005/1/11,12:19:03, 19-15.131N,119-12.612E,228.1,23.991,34.3149,238,161
2042,2005/1/11,12:20:03, 19-14.972N,119-12.428E,226.4,23.971,34.3156,236,161
2043,2005/1/11,12:21:03, 19-14.817N,119-12.244E,226,23.95,34.3168,239,161
2044,2005/1/11,12:22:03, 19-14.660N,119-12.057E,223.6,23.926,34.3185,237,161
2045,2005/1/11,12:23:03, 19-14.500N,119-11.871E,226.8,23.901,34.3212,235,161
2046,2005/1/11,12:24:03, 19-14.344N,119-11.680E,231.6,23.882,34.3249,238,161
2047,2005/1/11,12:25:03, 19-14.185N,119-11.493E,227.8,23.87,34.3273,237,161
2048,2005/1/11,12:26:03, 19-14.022N,119-11.306E,233.4,23.861,34.3293,239,161
2049,2005/1/11,12:27:03, 19-13.869N,119-11.122E,229.7,23.841,34.3308,240,161
2050,2005/1/11,12:28:03, 19-13.708N,119-10.937E,225.2,23.824,34.3334,236,161
2051,2005/1/11,12:29:03, 19-13.547N,119-10.746E,226.4,23.8,34.3361,236,161
2052,2005/1/11,12:30:03, 19-13.392N,119-10.562E,230,23.777,34.3396,238,161
2053,2005/1/11,12:31:03, 19-13.238N,119-10.375E,229.7,23.75,34.3441,236,161
2054,2005/1/11,12:32:03, 19-13.080N,119-10.189E,227.2,23.715,34.3507,241,161
2055,2005/1/11,12:33:03, 19-12.926N,119-10.006E,232.7,23.674,34.3559,237,161
2056,2005/1/11,12:34:03, 19-12.771N,119-09.828E,228.7,23.624,34.3635,237,161
2057,2005/1/11,12:35:03, 19-12.613N,119-09.643E,224.2,23.564,34.3724,232,161
2058,2005/1/11,12:36:03, 19-12.457N,119-09.466E,231.9,23.531,34.3831,236,161
2059,2005/1/11,12:37:03, 19-12.303N,119-09.290E,223.9,23.493,34.3895,237,161
2060,2005/1/11,12:38:03, 19-12.147N,119-09.109E,225.8,23.45,34.3935,233,161
2061,2005/1/11,12:39:03, 19-11.993N,119-08.933E,229.5,23.41,34.3953,234,161
2062,2005/1/11,12:40:03, 19-11.843N,119-08.760E,230.5,23.376,34.3971,233,161
2063,2005/1/11,12:41:03, 19-11.688N,119-08.580E,226.9,23.348,34.4001,231,161
2064,2005/1/11,12:42:03, 19-11.532N,119-08.406E,226.5,23.327,34.4022,233,161
2065,2005/1/11,12:43:03, 19-11.379N,119-08.233E,223.2,23.289,34.4037,232,161
2066,2005/1/11,12:44:03, 19-11.232N,119-08.062E,224.7,23.253,34.407,228,161
2067,2005/1/11,12:45:03, 19-11.080N,119-07.892E,224.6,23.219,34.4108,233,161
2068,2005/1/11,12:46:03, 19-10.932N,119-07.722E,221.6,23.184,34.4143,218,161
2069,2005/1/11,12:47:03, 19-10.784N,119-07.556E,229,23.159,34.4185,221,161
2070,2005/1/11,12:48:03, 19-10.641N,119-07.390E,232.9,23.139,34.4223,223,161
2071,2005/1/11,12:49:03, 19-10.498N,119-07.219E,222.8,23.116,34.4242,223,161
2072,2005/1/11,12:50:03, 19-10.351N,119-07.046E,226.6,23.099,34.4251,227,161
2073,2005/1/11,12:51:03, 19-10.204N,119-06.884E,232.5,23.078,34.429,228,161
2074,2005/1/11,12:52:03, 19-10.062N,119-06.712E,231.2,23.038,34.4296,226,161
2075,2005/1/11,12:53:03, 19-09.916N,119-06.540E,224.8,22.999,34.4332,229,161
2076,2005/1/11,12:54:03, 19-09.773N,119-06.375E,227.2,22.955,34.4376,223,161
2077,2005/1/11,12:55:03, 19-09.626N,119-06.204E,224.8,22.922,34.4429,243,161
2078,2005/1/11,12:56:03, 19-09.484N,119-06.042E,234,22.893,34.4479,229,161
2079,2005/1/11,12:57:03, 19-09.345N,119-05.873E,223,22.854,34.4513,236,161
2080,2005/1/11,12:58:03, 19-09.205N,119-05.711E,223.4,22.809,34.4555,230,161